Location: Bandys
(35.4750°N, 81.0830°W)
Time: 03:02:11
(UTC-04:00)

Daily predictions for brighter satellites

Satellite Brightness Start Highest point End
(mag) Time Altitude Azimuth Time Altitude Azimuth Time Altitude Azimuth
ATLAS 2AS CENTAUR R/B 4.5 03:17:04 29° NNE 03:17:04 29° NNE 03:20:48 10° NNE
CZ-4C R/B 3.8 04:17:35 40° SE 04:17:35 40° SE 04:22:20 10° SE
Cosmos 2344 3.6 04:16:41 75° NNE 04:16:41 75° NNE 04:24:20 10° NNE
Cosmos 2227 Rocket 3.4 04:21:35 38° E 04:21:35 38° E 04:26:12 10° NE
Lacrosse 5 3.3 04:29:39 34° ENE 04:29:39 34° ENE 04:32:41 10° NE
Cosmos 2297 Rocket 3.5 04:29:49 31° ESE 04:30:36 33° ESE 04:35:35 10° NE
Cosmos 2219 Rocket 3.0 04:26:14 10° N 04:31:44 48° ENE 04:37:11 10° SE
CZ-2D R/B 4.1 04:27:45 10° N 04:29:18 20° N 04:29:18 20° N
BREEZE-M DEB (TANK) 4.5 04:39:05 42° ENE 04:39:05 42° ENE 04:41:02 10° NE
Okean O Rocket 3.4 04:36:07 10° NNE 04:38:32 29° NE 04:38:32 29° NE
NOSS 3-4 (A) 3.5 04:43:36 81° E 04:43:36 81° E 04:49:53 10° NNE
NOSS 3-4 (C) 3.5 04:43:40 81° E 04:43:40 81° E 04:49:59 10° NNE
CZ-4B R/B 4.2 04:46:44 10° NNE 04:50:34 44° E 04:50:34 44° E
Lacrosse 5 rocket 4.0 04:57:30 13° N 04:57:30 13° N 04:58:30 10° N
PAYLOAD B 4.5 04:51:28 10° NNE 04:56:56 65° ESE 04:58:16 49° SSE
Cosmos 2082 3.6 04:59:50 79° SSE 05:00:04 82° ESE 05:05:42 10° NNE
IRS-1C Rocket 4.0 04:56:23 10° NNE 05:01:39 87° E 05:01:39 87° E
Resurs 1-4 Rocket 4.0 04:57:31 10° N 04:59:05 18° NNW 04:59:05 18° NNW
Meteor 2-8 Rocket 4.3 05:05:58 70° WSW 05:06:16 72° W 05:12:24 10° N
Cosmos 2333 Rocket 2.3 05:02:41 10° NNW 05:08:24 76° ENE 05:14:03 10° SSE
GOES 2 Rocket 4.5 05:09:05 41° S 05:09:48 42° S 05:16:48 10° E
Meteor 1-19 Rocket 4.2 05:10:46 40° S 05:12:56 84° E 05:18:34 10° N
Cosmos 220 Rocket 4.3 05:15:42 57° N 05:15:42 57° N 05:19:06 10° NNE
Cosmos 1727 Rocket 3.9 05:18:50 45° SW 05:20:41 66° W 05:26:58 10° N
PSLV R/B 4.3 05:17:21 10° NNE 05:21:36 52° E 05:24:32 18° S
Cosmos 923 Rocket 3.9 05:24:20 10° NNW 05:29:39 68° WSW 05:34:55 10° S
Meteor 2-4 Rocket 3.7 05:26:47 12° S 05:32:14 89° E 05:38:10 10° N
CZ-4B R/B 3.1 05:26:53 10° N 05:32:14 63° WNW 05:34:21 37° SW
DELTA 2 R/B (1) 3.5 05:30:56 47° SW 05:32:32 78° SSE 05:38:07 10° ENE
Cosmos 2173 Rocket 4.5 05:26:45 10° N 05:32:46 60° E 05:38:48 10° SSE
Meteor 1-23 Rocket 4.2 05:28:06 10° S 05:33:41 83° E 05:39:23 10° N
Cosmos 2237 Rocket 2.0 05:30:09 10° NNW 05:35:48 77° WSW 05:41:23 10° SSE
Cosmos 1666 3.2 05:32:35 10° N 05:36:26 61° E 05:40:12 10° SSE
NOSS 3-2 (A) 3.9 05:28:53 10° NW 05:36:32 74° WSW 05:44:38 10° SSE
Hubble Space Telescope 2.5 05:41:26 20° S 05:41:26 20° S 05:44:05 10° SE
Okean-O 2.8 05:37:20 10° NNE 05:41:47 73° ESE 05:46:11 10° S
Cosmos 1459 Rocket 4.2 05:36:01 10° N 05:42:24 75° E 05:48:41 10° S
CZ-3A R/B 4.2 05:39:20 19° SW 05:44:30 25° S 05:48:22 10° SE
ATLAS 5 CENTAUR R/B 2.4 05:39:46 10° NNW 05:45:57 87° WSW 05:52:30 10° SSE
RESURS DK-1 2.8 05:46:26 41° WNW 05:46:30 41° WNW 05:50:26 10° N
OTV 4 0.5 05:47:38 65° ESE 05:47:38 65° ESE 05:50:01 10° ESE
Cosmos 1980 3.8 05:43:42 10° NNW 05:49:13 53° WSW 05:54:42 10° S
Cosmos 1898 Rocket 3.5 05:44:09 10° SSW 05:49:28 84° ESE 05:54:48 10° NNE
ISS -0.8 05:51:54 12° S 05:51:54 12° S 05:52:19 10° S
Cosmos 2058 Rocket 3.2 05:45:39 10° N 05:50:00 72° E 05:54:21 10° SSE
USA 215 4.3 05:47:38 10° S 05:52:18 23° SW 05:52:18 23° SW
SL-16 R/B 2.6 05:49:02 10° NNW 05:54:41 65° ENE 06:00:18 10° SSE
MOS 1 Rocket 3.8 05:53:02 10° NNE 05:57:50 66° E 06:02:54 10° S
Cosmos 1346 Rocket 3.0 05:56:50 33° SW 05:58:05 44° W 06:01:55 10° N
Meteor 2-9 Rocket 4.2 05:52:30 10° N 05:58:09 79° W 06:03:56 10° S
COBE Rocket 4.2 05:54:51 10° NNE 05:59:37 66° E 06:04:15 10° S
NOSS 0 Rocket 4.4 05:55:08 10° NW 06:00:45 37° WSW 06:06:22 10° S
Cosmos 858 Rocket 4.4 05:55:56 10° SSW 06:01:11 85° WNW 06:06:30 10° NNE
ADEOS II 2.0 05:56:14 10° N 06:01:28 68° WNW 06:06:40 10° SSW
CZ-4C R/B 4.0 06:03:02 20° WSW 06:03:02 20° WSW 06:07:50 10° SSW
ASTRO F (AKARI) 4.4 06:01:21 10° S 06:04:22 46° W 06:07:27 10° NNW
Cosmos 2227 Rocket 3.2 06:03:27 23° W 06:05:05 26° WNW 06:09:47 10° N
Cosmos 1937 Rocket 3.5 05:59:57 10° SSW 06:05:08 83° ESE 06:10:25 10° NNE
Meteor PRIRODA 3.6 06:02:03 10° N 06:05:45 64° WNW 06:09:24 10° SSW
NOSS 2-2 (D) 4.2 06:05:18 10° SSW 06:09:12 53° ESE 06:13:31 10° NE
Lacrosse 5 3.2 06:08:52 19° WNW 06:10:58 25° NW 06:15:07 10° NNE
USA 116 4.3 06:06:43 10° S 06:11:56 67° WSW 06:16:47 10° NNW
CZ-4B R/B 3.7 06:08:42 10° NNE 06:12:39 85° ESE 06:16:24 10° S
Meteor 2-15 4.3 06:06:42 10° S 06:12:44 80° W 06:18:48 10° N
NOSS 3-2 (C) 4.2 06:06:19 10° NW 06:13:46 53° WSW 06:21:36 10° S
Cosmos 1025 Rocket 4.3 06:13:41 20° W 06:14:04 20° WNW 06:17:18 10° NNW
Cosmos 2297 Rocket 3.0 06:11:41 19° WSW 06:14:35 30° WNW 06:19:30 10° N
Cosmos 2219 Rocket 3.3 06:11:13 10° NW 06:15:15 20° W 06:19:14 10° SW
CENTAUR R/B 3.9 06:07:56 10° NNW 06:15:41 55° NE 06:23:48 10° SE
Okean O Rocket 3.5 06:14:09 10° NW 06:16:00 13° WNW 06:16:00 13° WNW
Cosmos 724 4.5 06:10:08 10° NNW 06:16:24 85° ENE 06:22:37 10° SSE
ADEOS Rocket 3.7 06:11:40 10° N 06:18:15 41° WNW 06:24:13 10° SW
Cosmos 1626 Rocket 3.5 06:17:31 10° S 06:21:55 88° W 06:26:18 10° N
NOSS 2-2 (C) 3.5 06:20:27 10° SSW 06:24:30 82° ESE 06:29:01 10° NNE
NOSS 2-2 (E) 3.4 06:22:33 10° SSW 06:26:37 84° WNW 06:31:15 10° NNE
Tiangong 1 2.9 06:25:06 12° NW 06:27:10 21° N 06:29:34 10° NE
Cosmos 1680 Rocket 4.5 06:23:35 10° NW 06:27:44 24° W 06:31:51 10° SSW
Cosmos 2061 Rocket 4.3 06:22:35 10° NNW 06:28:34 47° W 06:34:36 10° SSW
Cosmos 292 Rocket 4.2 06:25:49 10° NNW 06:30:23 41° WSW 06:34:55 10° S
Meteor 2-15 Rocket 4.4 06:25:48 10° SSW 06:31:48 65° W 06:37:50 10° N
Cosmos 1802 Rocket 4.2 06:28:02 10° NNW 06:33:54 47° W 06:39:43 10° SSW
Delta 2 Rocket 2.9 06:34:00 12° W 06:37:20 80° S 06:40:46 10° ESE
Meteor 1-31 Rocket 3.4 06:38:15 10° N 06:41:49 35° WNW 06:45:25 10° SW
Cosmos 1603 4.5 06:36:11 10° NNW 06:41:51 59° ENE 06:47:25 10° SE
Cosmos 1602 Rocket 3.8 06:40:22 10° SSW 06:44:39 47° W 06:48:56 10° N
OAO 2 Rocket 4.0 06:40:37 10° WSW 06:45:48 56° SSE 06:51:00 10° E
USA 129 3.2 06:44:22 10° SW 06:45:51 17° W 06:47:17 10° NW
BREEZE-M DEB (TANK) 3.5 06:38:14 10° NW 06:48:07 62° NNE 06:51:20 10° ESE
Cosmos 1725 Rocket 4.0 06:42:16 10° NNW 06:48:30 68° W 06:54:41 10° S
SKYMED 2 3.6 06:45:13 10° SSE 06:49:32 87° W 06:53:54 10° NNW
Iridium 4 Rocket 4.3 06:45:40 10° SSE 06:50:39 55° E 06:55:13 10° NNE
Aureole 2 Rocket 2.7 06:47:27 10° NNW 06:50:39 38° WSW 06:53:33 10° S
Cosmos 2333 Rocket 3.9 06:50:01 10° WNW 06:51:52 12° W 06:53:42 10° WSW
Cosmos 2263 Rocket 4.1 06:48:58 10° SSE 06:53:57 35° ESE 06:58:57 10° NE
SL-24 R/B 4.1 06:50:43 10° N 06:54:54 50° WNW 06:58:39 10° SSW
